Regional Weather Roundup
Issued by NWS Sterling, VA

Home | Current Version | Previous Version | Graphics & Text | Print | Product List | Glossary On
Versions: 1 2 3 4 5 6 7 8 9 10 11 12 13 14 15 16 17 18 19 20 21 22 23 24 25 26 27 28 29 30 31 32 33 34 35 36 37 38 39 40 41 42 43 44 45 46 47 48 49 50
000
ASUS41 KLWX 052110
RWRLWX

REGIONAL WEATHER ROUNDUP
NATIONAL WEATHER SERVICE BALTIMORE MD/WASHINGTON DC
500 PM EDT TUE MAY 05 2015

Note: "FAIR" indicates few or no clouds below 12,000 feet
with no significant weather and/or obstructions to visibility.
 TC=TEMPERATURE CELSIUS

 * =Non NWS site. Station does not report precipitation (e.g. rain,
    snow, etc.), thunder, or fog.

DCZ001-MDZ009-015-VAZ040>042-051-053>054-052200-
WASHINGTON METRO

CITY           SKY/WX    TMP DP  RH WIND       PRES   REMARKS
WASHINGTON NAT PTSUNNY   82  61  48 CALM      30.17F
DULLES         PTSUNNY   82  56  40 N6        30.18F
ANDREWS AFB    PTSUNNY   81  60  48 E9        30.17F
FT BELVOIR     SUNNY     83  56  39 S3        30.17F
QUANTICO       MOSUNNY   79  60  52 SW6       30.18F
COLLEGE PARK*  MOSUNNY   84  54  34 CALM      30.17F
LEESBURG*      PTSUNNY   82  63  51 W6        30.20S
MANASSAS*      CLOUDY    81  57  44 W21       30.19S
GAITHERSBURG*  MOSUNNY   81  57  44 CALM      30.22F

$$

MDZ006>007-011-014-052200-
BALTIMORE METRO

CITY           SKY/WX    TMP DP  RH WIND       PRES   REMARKS
BWI AIRPORT    PTSUNNY   81  56  42 SE8       30.17F
MD SCIENCE CTR   N/A     79  57  46 MISG      30.18F
MARTIN STATE   MOSUNNY   77  63  61 SE7       30.19F
ANNAPOLIS      SUNNY     74  58  57 SE9       30.18F
FORT MEADE*    MOSUNNY   81  55  41 SE8       30.20F

$$

MDZ012-015-019>023-052200-
MARYLAND EASTERN SHORE

CITY           SKY/WX    TMP DP  RH WIND       PRES   REMARKS
OCEAN CITY     SUNNY     68  56  65 VRB6      30.22S
SALISBURY      SUNNY     81  55  40 SW8       30.20F
BAY BRIDGE AP*   N/A    N/A N/A N/A CALM      30.19F
CAMBRIDGE*     SUNNY     81  55  41 S8        30.19F
EASTON*        MOSUNNY   84  59  42 SW7       30.22F

$$

MDZ017>025-052200-
SOUTHERN MARYLAND

CITY           SKY/WX    TMP DP  RH WIND       PRES   REMARKS
PATUXENT RIVER MOSUNNY   75  58  55 SE14      30.19F
ST INIGOES     SUNNY     80  60  50 E9        30.19F
LEONARDTOWN*   SUNNY     82  54  36 CALM      30.20F

$$

MDZ003>005-052200-
NORTH CENTRAL MARYLAND

CITY           SKY/WX    TMP DP  RH WIND       PRES   REMARKS
FREDERICK*     NOT AVBL
HAGERSTOWN APT LGT RAIN  78  58  49 N5        30.19F
WESTMINSTER*   MOSUNNY   79  59  50 CALM      30.20F

$$

MDZ501>502-052200-
WESTERN MARYLAND

CITY           SKY/WX    TMP DP  RH WIND       PRES   REMARKS
OAKLAND*       MOSUNNY   70  55  60 W7        30.29F
CUMBERLAND*    MOSUNNY   81  52  36 N14       30.22S

$$

VAZ025>031-052200-
SHENANDOAH VALLEY

CITY           SKY/WX    TMP DP  RH WIND       PRES   REMARKS
WINCHESTER*    PTSUNNY   77  55  47 S7        30.21F
FRONT ROYAL*   FAIR      70  63  78 S5        30.21F
LURAY*         FAIR      73  63  68 N3        30.23F
NEW MARKET*    FAIR      77  60  55 CALM      30.20F
STAUNTON*      CLOUDY    74  59  58 N6        30.25S
WAYNESBORO*    CLOUDY    74  57  54 N7        30.24F

$$

WVZ021-048>050-054>055-052200-
EASTERN WEST VIRGINIA PANHANDLE

CITY           SKY/WX    TMP DP  RH WIND       PRES   REMARKS
MARTINSBURG    PTSUNNY   74  57  55 S7        30.20F
PETERSBURG*    LGT RAIN  77  53  43 N5        30.21S

$$

VAZ036>039-050-052200-
CENTRAL FOOTHILLS

CITY           SKY/WX    TMP DP  RH WIND       PRES   REMARKS
CHARLOTTESVILL LGT RAIN  70  60  70 N12       30.20S
CULPEPER*      RAIN      67  62  84 NW10G23   30.23R
ORANGE*        RAIN      72  63  73 NW10G16   30.23R
GORDONSVILLE*  CLOUDY    73  59  62 NW15G26   30.19R
WARRENTON*     RAIN      71  64  79 W15       30.22R

$$

VAZ055>057-052200-
NORTH AND CENTRAL PIEDMONT

CITY           SKY/WX    TMP DP  RH WIND       PRES   REMARKS
FREDERICKSBRG* MOSUNNY   86  57  36 E6        30.16F
STAFFORD*      PTSUNNY   83  53  34 E10       30.21F

$$

NCZ024-NYZ072-PAZ021-071-VAZ022-071-052200-
OTHER REGIONAL OBSERVATIONS

CITY           SKY/WX    TMP DP  RH WIND       PRES   REMARKS
NEW YORK CITY  PTSUNNY   81  54  39 VRB3      30.17F
PHILADELPHIA   PTSUNNY   83  55  38 W10       30.16F
PITTSBURGH     PTSUNNY   73  58  59 SW7       30.23F
ROANOKE        PTSUNNY   80  54  40 S10G18    30.23F
RICHMOND       MOSUNNY   85  57  38 S9        30.19F
RALEIGH        MOSUNNY   81  57  43 S7        30.25F

$$

ANZ530>537-052200-
MARINE OBSERVATIONS

STATION/POSITION TIME  TEMP    WIND        PRES
                       AIR SEA DIR/SP/G
                 (UTC) (F)     (DEG/KT/KT) (MB)
THOMAS PT LIGHT  2100   68 58  200/  6/  7 1022.7F
BALT KEY BRIDGE  2000   73     110/ 11/ 12 1022.2F
COVE POINT       2000   66     190/ 10/ 10 1023.7F
LEWISETTA        2000   68 63              1022.5F
SOLOMONS ISLAND  2000      65                N/A
PINEY POINT      2000          150/ 12/ 12   N/A

$$



USA.gov is the U.S. government's official web portal to all federal, state and local government web resources and services.